Вернуться в каталог

SAMSAT-ION 2

АктивенЛюбительское радиоSSO
NORAD 61784·PAYLOAD·🇷🇺 Russia
Это название спутника еще не подтверждено официальными источниками.

Запущен Nov 4, 2024 с Vostochny Cosmodrome

Loading…

Ближайшие Пролёты (ближайшие 24 часа)

TLE

СвежийSource: Space-Track

Эпоха: Sep 14, 2026, 21:17 UTC

1 61784U 24199BB  26257.88689389  .00083662  00000-0  79719-3 0  9993
2 61784  97.2749 136.3588 0004048 320.9391  39.1577 15.66527582151560

Отслеживайте SAMSAT-ION 2 в реальном времени с AllMySat

Download on the App Store